QPF
0.02 0.02 0.02 0.03 0.02 0.01 0.03 0.06 0.07 0.08 0.09 0.08 0.09 0.08 0.04 0.02 0.04 0.08 0.09 0.09 0.11 0.03
0.02 0.02 0.02 0.01 0.01 0.02 0.03 0.05 0.07 0.10 0.09 0.08 0.09 0.05 0.02 0.01 0.02 0.07 0.12 0.12 0.06 0.00
0.01 0.01 0.01 0.01 0.02 0.02 0.04 0.07 0.09 0.09 0.08 0.07 0.07 0.05 0.03 0.00 0.00 0.01 0.01 0.02 0.00 0.00
0.01 0.01 0.02 0.02 0.01 0.01 0.02 0.05 0.06 0.03 0.01 0.02 0.03 0.04 0.01 0.00 0.00 0.00 0.00 0.02 0.02 0.03
0.02 0.01 0.02 0.02 0.01 0.01 0.00 0.02 0.04 0.03 0.00 0.00 0.00 0.01 0.01 0.02 0.00 0.00 0.00 0.04 0.05 0.01
0.01 0.01 0.01 0.02 0.02 0.03 0.01 0.00 0.01 0.01 0.01 0.01 0.01 0.00 0.00 0.00 0.00 0.00 0.00 0.00 0.01 0.02
0.01 0.01 0.02 0.02 0.00 0.02 0.02 0.00 0.00 0.01 0.02 0.01 0.01 0.00 0.00 0.00 0.00 0.00 0.00 0.00 0.00 0.01
0.01 0.02 0.03 0.01 0.01 0.01 0.01 0.02 0.02 0.01 0.01 0.01 0.01 0.00 0.00 0.01 0.00 0.00 0.00 0.00 0.01 0.01
0.00 0.01 0.01 0.01 0.03 0.02 0.03 0.02 0.02 0.02 0.02 0.03 0.01 0.00 0.00 0.00 0.00 0.00 0.00 0.00 0.01 0.00
0.00 0.00 0.00 0.00 0.00 0.00 0.01 0.01 0.01 0.01 0.01 0.02 0.01 0.00 0.00 0.00 0.00 0.00 0.00 0.00 0.00 0.00
0.01 0.00 0.01 0.01 0.01 0.01 0.01 0.01 0.00 0.00 0.00 0.00 0.00 0.00 0.00 0.00 0.00 0.00 0.00 0.00 0.00 0.00
0.01 0.01 0.01 0.01 0.00 0.01 0.01 0.01 0.00 0.00 0.00 0.01 0.00 0.00 0.00 0.00 0.00 0.00 0.00 0.00 0.00 0.00
0.01 0.01 0.01 0.01 0.00 0.00 0.01 0.00 0.00 0.00 0.01 0.01 0.00 0.00 0.00 0.00 0.00 0.00 0.00 0.00 0.00 0.00
0.00 0.01 0.02 0.01 0.00 0.00 0.00 0.01 0.02 0.02 0.02 0.01 0.00 0.00 0.00 0.00 0.01 0.02 0.01 0.00 0.00 0.00
MSLP
1023.45 1023.00 1022.79 1022.51 1022.36 1021.88 1021.66 1021.09 1020.85 1020.43 1020.15 1019.82 1019.63 1019.56 1019.25 1019.03 1019.17 1019.11 1018.94 1018.81 1018.93 1018.56
1023.39 1023.07 1022.92 1022.76 1022.51 1021.85 1021.60 1021.27 1020.90 1020.57 1020.28 1020.12 1020.01 1019.86 1019.83 1019.76 1019.72 1019.52 1019.30 1019.18 1018.99 1018.81
1023.52 1023.62 1023.41 1023.07 1022.72 1022.33 1022.07 1021.60 1021.28 1020.90 1020.70 1020.59 1020.51 1020.30 1020.10 1020.04 1020.25 1020.05 1019.70 1019.43 1019.41 1019.25
1024.14 1024.13 1023.86 1023.38 1023.12 1022.75 1022.32 1021.93 1021.68 1021.21 1021.11 1020.93 1020.69 1020.49 1020.42 1020.47 1020.22 1020.18 1020.00 1019.66 1019.31 1019.17
1025.00 1024.66 1023.98 1023.84 1023.54 1023.09 1022.61 1022.14 1021.74 1021.31 1021.07 1021.07 1021.00 1020.73 1020.43 1020.15 1020.11 1019.92 1019.73 1019.44 1019.09 1018.85
1025.32 1024.83 1024.34 1024.17 1023.60 1023.33 1022.65 1022.37 1022.11 1021.62 1021.07 1021.09 1021.00 1020.77 1020.70 1020.48 1020.19 1019.91 1019.62 1019.46 1019.26 1019.23
1025.06 1024.74 1024.39 1024.08 1023.88 1023.32 1022.89 1022.62 1022.28 1021.76 1021.62 1021.32 1021.27 1021.44 1021.25 1020.80 1020.48 1020.27 1019.89 1019.76 1019.66 1019.80
1025.43 1024.85 1024.74 1024.27 1023.78 1023.46 1023.02 1022.78 1022.35 1022.07 1021.80 1021.65 1021.56 1022.21 1022.19 1021.49 1020.99 1020.57 1020.28 1020.28 1020.14 1020.36
1025.74 1025.24 1025.03 1024.51 1023.97 1023.60 1023.32 1023.12 1022.93 1022.71 1022.40 1022.20 1022.19 1023.07 1022.72 1022.20 1021.58 1021.23 1020.96 1020.80 1020.50 1020.60
1025.63 1025.51 1025.19 1024.90 1024.59 1024.30 1024.04 1023.85 1023.72 1023.41 1023.00 1022.82 1022.98 1023.37 1022.97 1022.37 1021.93 1021.62 1021.40 1021.36 1021.27 1021.10
1025.80 1025.47 1025.30 1024.83 1024.52 1024.40 1024.16 1023.92 1023.92 1023.74 1023.63 1023.49 1023.62 1023.71 1023.40 1022.83 1022.39 1022.14 1021.96 1021.64 1021.53 1021.32
1025.61 1025.14 1024.83 1024.60 1024.45 1024.28 1024.01 1024.06 1023.89 1023.79 1023.42 1023.20 1023.41 1023.84 1023.57 1022.89 1022.57 1022.11 1021.78 1021.55 1021.48 1021.59
1025.59 1025.39 1025.20 1024.94 1024.62 1024.43 1024.25 1023.93 1023.45 1023.28 1023.17 1023.21 1023.39 1024.01 1023.60 1023.31 1022.78 1021.89 1021.10 1020.79 1021.50 1022.02
1025.60 1025.47 1025.46 1025.14 1024.76 1024.45 1024.24 1023.98 1023.56 1023.21 1022.98 1022.88 1023.23 1023.61 1023.36 1023.14 1022.72 1021.86 1020.96 1020.44 1020.93 1021.80
Thickness
5505 5503 5499 5496 5492 5492 5489 5490 5489 5489 5489 5491 5492 5491 5493 5497 5499 5504 5507 5509 5508 5513
5497 5494 5489 5484 5481 5482 5480 5478 5479 5479 5480 5481 5482 5483 5484 5486 5488 5493 5498 5501 5504 5507
5489 5480 5475 5471 5469 5469 5467 5467 5467 5469 5470 5472 5473 5475 5477 5479 5478 5484 5491 5495 5497 5500
5475 5468 5463 5462 5460 5461 5461 5461 5461 5464 5464 5466 5469 5471 5472 5472 5477 5480 5485 5491 5497 5500
5463 5461 5462 5458 5456 5456 5457 5458 5459 5461 5463 5464 5464 5468 5472 5476 5478 5482 5486 5492 5498 5502
5462 5461 5461 5457 5459 5457 5459 5459 5458 5460 5465 5464 5466 5469 5471 5474 5478 5483 5489 5493 5498 5500
5471 5468 5466 5464 5461 5461 5460 5460 5461 5464 5464 5465 5466 5466 5470 5474 5478 5482 5489 5493 5495 5495
5475 5475 5470 5469 5469 5467 5467 5466 5468 5468 5469 5469 5470 5466 5467 5474 5478 5484 5488 5490 5493 5492
5480 5479 5476 5476 5476 5476 5475 5473 5471 5471 5472 5473 5473 5467 5469 5474 5480 5484 5487 5490 5494 5494
5488 5484 5482 5480 5479 5478 5477 5475 5474 5474 5477 5478 5476 5473 5476 5481 5485 5488 5490 5491 5492 5494
5492 5491 5488 5489 5488 5486 5485 5484 5481 5480 5480 5480 5479 5479 5482 5485 5488 5490 5491 5494 5496 5499
5499 5500 5499 5497 5496 5494 5493 5490 5489 5488 5491 5493 5492 5488 5489 5494 5496 5498 5501 5502 5503 5503
5504 5503 5501 5500 5501 5500 5499 5499 5501 5501 5501 5499 5500 5495 5497 5498 5505 5509 5514 5517 5511 5507
5509 5508 5505 5505 5507 5507 5506 5506 5508 5509 5511 5511 5510 5508 5508 5510 5515 5520 5525 5528 5525 5519